z/d,0,0,50,50,100,100,200,200,300,300,400,400,500,500,750,750,1000,1000,2000,2000,3000,3000,4000,4000,4700,4700
2016.11.14-01:00,1.32,80.11,1.36,80.63,1.30,71.78,.99,79.29,.80,72.88,.89,65.74,.79,69.86,.72,81.57,.48,54.64,.35,64.20,.25,65.63,.20,39.93,.04,90.00
2016.11.14-02:00,1.26,82.56,1.30,83.06,1.29,73.69,.95,75.55,.80,67.06,.90,64.73,.77,69.29,.66,87.27,.48,58.04,.32,65.67,.20,64.93,.17,32.48,.02,90.00
2016.11.14-03:00,1.17,85.60,1.22,85.66,1.27,76.39,.93,72.61,.83,63.10,.92,65.28,.76,69.55,.59,92.63,.47,62.15,.29,67.45,.17,63.05,.16,25.29,.02,90.00
2016.11.14-04:00,1.05,87.05,1.12,87.93,1.22,79.26,.94,70.15,.88,60.84,.95,66.62,.78,70.06,.53,95.99,.46,66.29,.27,69.70,.16,60.78,.16,22.91,.01,90.00
2016.11.14-05:00,.92,84.90,1.01,89.32,1.15,81.73,.94,67.79,.93,59.58,.98,68.16,.79,70.49,.46,95.81,.45,69.95,.27,72.42,.16,60.08,.17,27.06,.02,90.00
2016.11.14-06:00,.89,84.17,.90,89.55,1.08,83.65,.97,66.13,.99,59.61,1.01,70.11,.82,71.20,.41,90.78,.45,72.50,.28,74.46,.19,60.52,.20,34.32,.02,90.00
2016.11.14-07:00,.85,83.17,.82,88.39,1.02,84.97,1.01,65.79,1.05,61.18,1.05,72.60,.85,72.35,.39,81.30,.45,73.46,.30,75.21,.22,61.36,.23,41.42,.03,90.00
2016.11.14-08:00,.82,81.25,.79,85.63,.98,85.40,1.06,66.56,1.12,63.99,1.07,75.41,.89,73.75,.41,70.70,.46,72.92,.31,74.71,.25,62.18,.26,47.23,.04,90.00
2016.11.14-09:00,.81,76.94,.78,81.80,.95,84.84,1.11,67.85,1.18,67.36,1.09,78.22,.91,75.24,.46,62.76,.48,71.53,.31,73.47,.27,62.83,.28,51.39,.05,90.00
2016.11.14-10:00,.84,69.76,.80,77.75,.93,83.42,1.15,69.23,1.21,70.78,1.08,80.84,.91,76.85,.52,58.50,.49,70.19,.31,71.67,.28,63.03,.28,53.96,.05,90.00
2016.11.14-11:00,.90,62.48,.83,73.60,.91,80.94,1.17,70.17,1.21,73.61,1.04,82.99,.89,78.51,.57,57.27,.49,69.82,.29,69.91,.26,62.95,.25,55.15,.04,90.00
2016.11.14-12:00,1.00,57.37,.87,69.95,.88,77.57,1.18,70.67,1.19,75.77,.99,84.72,.85,80.36,.59,58.26,.49,70.92,.26,68.04,.24,62.10,.22,54.45,.03,90.00
2016.11.14-13:00,1.11,54.67,.90,67.28,.87,73.65,1.17,70.84,1.15,77.28,.92,85.91,.80,82.15,.60,60.69,.48,73.51,.23,66.03,.20,60.57,.17,51.70,.02,90.00
2016.11.14-14:00,1.21,55.17,.94,66.26,.86,70.21,1.17,70.98,1.10,78.27,.85,86.22,.75,83.30,.60,63.75,.46,77.21,.21,63.56,.17,58.50,.13,46.41,.01,90.00
2016.11.14-15:00,1.25,58.74,.97,66.90,.87,68.05,1.17,71.33,1.06,78.73,.79,85.13,.70,83.02,.58,66.74,.44,81.59,.19,60.96,.14,56.42,.10,39.06,.00,90.00
2016.11.14-16:00,1.24,63.03,.98,68.69,.89,67.28,1.18,72.07,1.03,78.63,.75,82.30,.66,80.75,.56,69.07,.41,86.27,.19,59.47,.14,55.27,.09,32.96,.00,90.00
2016.11.14-17:00,1.22,66.75,.99,71.26,.91,67.83,1.19,73.52,1.02,78.41,.73,78.35,.65,76.88,.55,70.29,.37,90.12,.21,60.03,.15,55.97,.10,33.00,.01,90.00
2016.11.14-18:00,1.21,69.74,.99,73.62,.94,68.92,1.20,75.57,1.02,78.32,.75,74.32,.67,72.50,.55,69.87,.33,90.92,.24,61.76,.19,58.07,.13,38.09,.02,90.00
2016.11.14-19:00,1.22,70.72,1.00,75.03,.97,69.95,1.21,77.95,1.03,78.58,.79,71.24,.72,69.02,.57,68.35,.31,86.22,.28,63.33,.24,60.39,.17,43.28,.03,90.00
2016.11.14-20:00,1.27,71.33,1.02,75.76,1.02,71.06,1.22,80.51,1.06,79.46,.85,69.66,.79,67.35,.62,67.16,.30,76.04,.31,63.78,.28,62.26,.22,46.62,.04,90.00
2016.11.14-21:00,1.29,72.85,1.05,76.40,1.06,72.36,1.21,82.84,1.07,80.69,.89,69.10,.85,67.07,.69,66.98,.34,64.67,.33,63.16,.32,64.01,.26,49.01,.05,90.00
2016.11.14-22:00,1.29,73.87,1.07,77.23,1.10,73.69,1.18,84.34,1.05,81.47,.93,68.60,.89,67.25,.74,67.69,.39,56.33,.35,61.86,.33,65.64,.28,50.56,.06,90.00
2016.11.14-23:00,1.33,75.00,1.09,78.64,1.11,75.10,1.12,84.69,1.01,81.26,.94,67.75,.91,67.42,.77,69.34,.45,52.11,.36,60.62,.33,67.14,.29,51.12,.06,90.00
2016.11.14-24:00,1.28,78.19,1.08,80.57,1.10,76.56,1.04,83.57,.96,79.58,.95,66.50,.91,67.46,.78,71.94,.50,51.18,.35,59.83,.30,68.21,.27,50.25,.05,90.00
2016.11.15-01:00,1.20,80.76,1.06,82.76,1.07,78.12,.97,80.97,.90,76.39,.95,65.29,.90,67.67,.76,75.61,.52,52.58,.33,59.56,.25,68.57,.23,47.36,.04,90.00
2016.11.15-02:00,1.13,81.91,1.03,84.85,1.04,79.99,.93,77.57,.87,72.47,.96,64.99,.88,68.66,.72,80.27,.53,55.56,.30,59.67,.20,67.72,.19,41.90,.03,90.00
2016.11.15-03:00,1.10,83.11,.98,86.97,1.00,82.34,.92,74.35,.88,69.00,.98,65.90,.87,70.43,.66,85.29,.52,59.25,.27,59.88,.15,64.52,.16,34.66,.02,90.00
2016.11.15-04:00,1.03,85.71,.91,89.54,.94,85.25,.91,71.72,.90,66.58,.99,67.68,.85,72.51,.58,89.83,.50,63.09,.25,60.44,.12,58.87,.14,29.62,.01,90.00
2016.11.15-05:00,.95,87.54,.83,92.37,.87,88.30,.92,69.55,.93,65.15,1.01,69.77,.84,74.30,.50,92.47,.48,66.90,.24,61.84,.12,53.57,.14,30.81,.01,90.00
2016.11.15-06:00,.86,89.19,.72,94.74,.77,90.72,.94,67.55,.96,64.29,1.02,71.57,.84,75.35,.44,91.80,.46,70.68,.24,64.25,.14,51.87,.16,36.90,.01,90.00
2016.11.15-07:00,.74,89.53,.61,95.55,.67,91.57,.97,66.01,1.01,63.94,1.04,72.91,.86,75.62,.40,86.88,.46,74.00,.26,66.93,.17,52.97,.19,44.07,.02,90.00
2016.11.15-08:00,.66,85.33,.53,94.30,.60,90.55,1.02,65.96,1.07,64.76,1.07,74.36,.88,75.72,.41,78.93,.46,75.99,.27,68.45,.21,54.31,.22,49.42,.03,90.00
2016.11.15-09:00,.75,83.31,.49,91.03,.56,88.03,1.08,67.59,1.13,66.90,1.10,76.30,.91,76.13,.43,70.75,.47,75.98,.29,68.71,.24,55.77,.24,53.27,.04,90.00
2016.11.15-10:00,.76,90.95,.49,85.89,.57,84.31,1.12,70.14,1.17,69.78,1.11,78.62,.92,76.83,.48,64.09,.46,73.79,.29,67.73,.26,57.29,.26,56.13,.04,90.00
2016.11.15-11:00,.75,96.13,.52,79.34,.59,79.64,1.14,72.62,1.19,72.59,1.09,81.01,.91,77.81,.53,60.02,.46,70.84,.28,65.98,.27,58.85,.25,58.28,.04,90.00
2016.11.15-12:00,.71,97.29,.55,71.74,.61,73.86,1.13,74.21,1.17,74.64,1.04,83.17,.88,79.06,.57,58.94,.46,69.08,.26,63.77,.25,60.11,.23,59.35,.03,90.00
2016.11.15-13:00,.63,97.87,.59,64.53,.63,67.35,1.10,74.68,1.13,75.69,.97,84.82,.83,80.43,.59,60.36,.47,69.56,.24,61.14,.22,60.75,.18,58.62,.02,90.00
2016.11.15-14:00,.53,95.66,.64,59.96,.65,62.21,1.07,74.37,1.09,76.07,.90,85.66,.78,81.43,.59,63.11,.46,71.95,.21,58.04,.18,60.87,.13,55.30,.01,90.00
2016.11.15-15:00,.47,87.70,.69,58.90,.69,60.15,1.05,73.69,1.07,76.13,.84,85.23,.73,81.37,.58,66.03,.45,75.44,.19,54.59,.14,60.59,.09,47.74,.00,90.00
2016.11.15-16:00,.50,75.50,.73,60.76,.74,61.09,1.06,73.13,1.06,76.25,.79,83.33,.69,80.01,.56,68.52,.42,79.47,.18,51.65,.12,60.14,.06,36.58,.00,270.00
2016.11.15-17:00,.58,71.04,.76,64.00,.78,63.55,1.07,72.95,1.05,76.40,.75,79.98,.66,77.34,.53,69.95,.38,83.09,.18,50.72,.12,60.60,.07,32.44,.00,270.00
2016.11.15-18:00,.60,74.43,.78,67.59,.81,66.57,1.08,73.46,1.04,76.64,.74,75.93,.66,74.08,.52,70.25,.35,85.06,.20,52.09,.15,61.61,.09,37.22,.01,90.00
2016.11.15-19:00,.61,78.78,.78,70.08,.82,69.03,1.09,74.42,1.05,76.77,.76,71.94,.68,70.89,.53,69.61,.33,84.06,.24,54.91,.18,62.67,.13,42.54,.02,90.00
2016.11.15-20:00,.61,84.33,.77,70.80,.83,70.65,1.10,75.65,1.07,76.85,.81,68.82,.74,68.36,.58,68.33,.34,79.17,.28,57.69,.23,63.71,.18,45.94,.03,90.00
2016.11.15-21:00,.62,88.02,.77,70.70,.85,72.09,1.11,77.27,1.09,77.42,.87,67.18,.80,67.00,.63,67.12,.35,71.27,.31,59.26,.27,64.75,.23,48.32,.04,90.00
2016.11.15-22:00,.64,91.90,.79,71.46,.88,73.82,1.12,79.12,1.10,78.44,.93,66.77,.86,66.61,.69,66.42,.39,62.37,.34,59.43,.30,65.94,.27,50.33,.05,90.00
2016.11.15-23:00,.67,94.53,.82,73.01,.92,75.72,1.11,80.70,1.10,79.29,.97,66.82,.90,66.58,.74,66.52,.43,55.10,.35,58.67,.30,67.05,.29,51.65,.06,90.00
2016.11.15-24:00,.68,96.34,.82,74.63,.92,77.36,1.07,81.34,1.06,79.24,.99,66.68,.91,66.43,.77,67.84,.48,51.40,.35,57.82,.29,67.70,.29,51.84,.05,90.00
2016.11.16-01:00,.67,97.38,.79,75.92,.90,78.57,1.01,80.51,1.01,77.86,.99,66.15,.91,66.12,.78,70.74,.52,51.28,.34,57.36,.25,67.42,.26,50.50,.05,90.00
2016.11.16-02:00,.64,98.50,.76,77.01,.86,79.66,.95,78.31,.96,75.26,.99,65.68,.89,66.27,.76,75.40,.54,53.67,.31,57.17,.20,65.22,.22,47.03,.03,90.00
2016.11.16-03:00,.62,99.61,.73,77.93,.83,80.59,.93,75.37,.93,72.11,.99,65.84,.88,67.35,.71,81.44,.54,57.39,.28,56.79,.15,59.43,.18,41.41,.02,90.00
2016.11.16-04:00,.58,101.36,.68,78.51,.78,81.23,.92,72.29,.93,69.11,.99,66.67,.86,69.12,.64,87.92,.52,61.50,.25,56.31,.12,49.73,.15,36.35,.01,90.00
2016.11.16-05:00,.53,104.05,.62,79.26,.73,81.92,.92,69.66,.94,66.89,1.00,68.14,.84,71.27,.55,93.60,.49,65.41,.23,55.89,.11,40.23,.14,35.75,.00,90.00
2016.11.16-06:00,.46,107.74,.54,79.82,.66,82.31,.93,67.56,.96,65.50,1.00,69.85,.83,73.20,.47,96.73,.46,68.69,.22,56.09,.12,38.07,.14,41.54,.00,90.00
2016.11.16-07:00,.38,111.42,.46,77.87,.58,80.81,.94,65.71,.98,64.57,1.00,71.23,.83,74.38,.40,95.08,.44,71.40,.22,57.68,.15,42.20,.15,50.11,.01,90.00
2016.11.16-08:00,.31,112.61,.39,71.79,.52,76.48,.96,64.61,1.02,64.39,1.01,72.28,.84,74.89,.36,87.64,.44,73.51,.24,59.96,.18,46.95,.18,56.11,.02,90.00
2016.11.16-09:00,.25,108.91,.37,63.66,.50,70.89,1.01,65.00,1.07,65.45,1.04,73.32,.87,75.05,.37,77.23,.45,74.32,.25,61.70,.22,50.82,.20,59.17,.03,90.00
2016.11.16-10:00,.24,96.73,.40,57.36,.53,66.55,1.07,66.80,1.13,67.65,1.06,74.57,.89,75.12,.41,67.45,.46,73.13,.26,62.28,.25,54.41,.22,61.07,.03,90.00
2016.11.16-11:00,.29,80.78,.48,54.54,.59,64.50,1.12,69.52,1.16,70.51,1.07,76.10,.89,75.32,.46,60.05,.46,70.26,.26,61.41,.26,57.70,.23,62.48,.03,90.00
2016.11.16-12:00,.38,69.27,.57,53.12,.67,63.15,1.14,72.29,1.17,73.32,1.06,77.72,.88,75.91,.51,56.10,.47,67.38,.26,59.32,.25,60.59,.21,63.24,.03,90.00
2016.11.16-13:00,.48,61.36,.67,51.57,.72,60.83,1.13,74.17,1.14,75.38,1.02,79.05,.85,76.86,.55,55.48,.47,66.24,.24,56.51,.23,63.26,.17,62.97,.02,90.00
2016.11.16-14:00,.59,56.26,.75,50.68,.77,58.35,1.09,75.00,1.09,76.47,.96,79.89,.81,77.98,.57,57.19,.47,67.53,.22,53.31,.19,65.63,.13,60.21,.01,90.00
2016.11.16-15:00,.71,55.57,.83,52.28,.82,58.06,1.06,75.22,1.05,76.59,.91,80.03,.76,78.69,.57,59.90,.46,70.74,.21,49.96,.14,67.61,.08,51.64,.00,90.00
2016.11.16-16:00,.81,58.63,.90,56.53,.88,60.74,1.06,75.46,1.03,76.11,.88,79.58,.73,78.65,.57,62.83,.43,74.88,.19,46.78,.11,68.57,.05,30.81,.01,270.00
2016.11.16-17:00,.89,62.91,.95,61.49,.92,64.47,1.06,75.62,1.02,75.29,.85,78.52,.70,77.70,.55,65.47,.39,79.13,.18,45.51,.09,67.51,.05,12.20,.01,270.00
2016.11.16-18:00,.93,67.91,.98,66.28,.95,68.15,1.05,75.69,1.02,74.40,.84,76.96,.68,75.95,.53,67.44,.36,82.24,.19,47.30,.09,65.14,.06,16.54,.00,270.00
2016.11.16-19:00,.94,72.98,.99,70.69,.96,71.59,1.05,76.07,1.03,73.93,.84,75.47,.69,73.95,.53,68.81,.33,82.66,.21,51.01,.11,62.60,.09,28.55,.00,90.00
2016.11.16-20:00,.93,76.48,.98,73.62,.95,73.77,1.05,76.36,1.04,73.48,.86,73.75,.72,71.55,.55,69.14,.33,79.78,.25,55.39,.15,61.35,.14,37.93,.02,90.00
2016.11.16-21:00,.92,78.10,.97,75.14,.94,74.71,1.05,76.64,1.06,73.09,.90,71.98,.77,68.94,.60,68.37,.35,74.20,.28,59.04,.19,61.31,.19,44.09,.03,90.00
2016.11.16-22:00,.93,79.02,.97,76.48,.94,75.50,1.05,77.36,1.08,73.35,.93,70.76,.83,66.77,.66,67.20,.38,67.06,.31,60.95,.23,61.89,.24,48.57,.04,90.00
2016.11.16-23:00,.96,80.12,.99,78.10,.97,76.47,1.05,78.27,1.10,74.18,.96,70.02,.88,65.35,.72,66.63,.42,59.98,.32,61.03,.26,62.81,.28,52.12,.05,90.00
2016.11.16-24:00,.99,81.21,1.02,79.57,.99,77.14,1.04,78.68,1.10,74.88,.98,69.30,.92,64.64,.77,67.41,.47,55.04,.32,59.74,.27,63.43,.30,54.64,.05,90.00
2016.11.17-01:00,.99,81.88,1.02,80.29,.99,77.01,1.01,77.83,1.07,74.66,.98,68.18,.94,64.25,.80,69.56,.51,52.95,.31,57.95,.25,63.68,.29,56.44,.05,90.00
2016.11.17-02:00,.97,82.14,.99,80.31,.98,76.40,.96,75.61,1.03,73.38,.96,66.81,.94,64.28,.79,73.16,.54,53.41,.29,56.27,.22,63.10,.25,57.27,.04,90.00
2016.11.17-03:00,.97,82.80,.98,80.52,.99,76.55,.95,73.40,1.01,72.23,.97,66.54,.95,66.06,.77,78.71,.55,56.29,.27,54.25,.18,59.17,.20,54.88,.02,90.00
2016.11.17-04:00,.94,83.12,.96,80.32,.99,76.83,.95,70.99,1.00,70.95,.98,66.99,.94,68.89,.72,85.56,.54,60.56,.24,52.53,.13,51.33,.15,49.26,.00,90.00
2016.11.17-05:00,.89,83.52,.91,80.20,.97,77.41,.97,68.84,1.00,69.76,.98,67.96,.92,72.17,.65,92.44,.52,64.93,.22,51.14,.11,41.45,.12,42.56,.01,270.00
2016.11.17-06:00,.85,84.90,.87,81.05,.94,78.86,.99,67.68,1.00,69.16,.99,69.36,.90,75.28,.55,97.92,.48,68.33,.21,50.04,.11,36.31,.10,41.33,.01,270.00
2016.11.17-07:00,.79,86.77,.81,82.35,.90,80.67,1.01,67.38,1.01,69.05,.99,70.70,.88,77.57,.45,100.30,.45,70.65,.21,50.03,.12,39.41,.11,48.60,.00,270.00
2016.11.17-08:00,.73,87.49,.75,82.40,.85,81.59,1.03,67.52,1.03,69.14,.99,71.57,.86,78.70,.36,96.90,.43,72.53,.23,51.75,.15,45.72,.13,57.20,.01,90.00
2016.11.17-09:00,.67,86.65,.69,80.54,.80,81.24,1.06,68.50,1.06,69.82,1.01,72.17,.86,78.85,.33,86.03,.43,74.26,.24,54.32,.18,50.33,.15,61.34,.02,90.00
2016.11.17-10:00,.63,85.94,.66,77.73,.77,80.32,1.09,70.43,1.10,71.21,1.04,72.62,.88,78.27,.36,73.01,.44,75.14,.26,56.97,.20,53.37,.17,61.96,.02,90.00
2016.11.17-11:00,.61,87.42,.67,75.13,.76,79.38,1.12,73.00,1.13,73.09,1.07,73.15,.89,77.34,.42,63.14,.45,74.34,.26,59.02,.22,56.12,.19,61.57,.03,90.00
2016.11.17-12:00,.65,87.26,.72,73.40,.79,78.63,1.13,75.83,1.14,75.27,1.08,74.27,.90,76.82,.49,57.14,.46,71.99,.26,59.69,.23,58.71,.19,60.96,.03,90.00
2016.11.17-13:00,.70,85.86,.80,71.71,.83,77.13,1.12,78.01,1.13,77.24,1.07,75.80,.88,77.06,.55,54.65,.46,69.41,.25,59.15,.21,61.47,.17,60.24,.03,90.00
2016.11.17-14:00,.74,83.06,.86,69.43,.85,74.15,1.08,78.71,1.08,78.38,1.03,77.14,.84,77.81,.59,55.01,.45,68.25,.23,57.99,.19,64.56,.15,58.77,.02,90.00
2016.11.17-15:00,.79,79.03,.91,67.48,.87,70.73,1.04,78.05,1.02,78.36,.98,77.98,.80,78.61,.60,57.38,.45,69.44,.21,56.53,.15,67.73,.11,54.76,.01,90.00
2016.11.17-16:00,.85,78.56,.96,67.94,.92,69.61,1.02,77.41,.99,77.58,.94,78.73,.76,79.25,.61,61.08,.44,72.60,.18,54.17,.11,69.89,.07,43.33,.00,90.00
2016.11.17-17:00,.89,81.28,1.02,70.22,.97,70.49,1.03,77.02,.98,76.28,.92,78.89,.73,78.92,.59,64.80,.41,76.55,.17,51.71,.08,70.44,.05,24.24,.01,270.00
2016.11.17-18:00,.92,84.94,1.04,73.18,1.00,72.16,1.04,76.77,.99,74.83,.90,78.27,.70,77.35,.57,67.74,.38,80.41,.16,51.05,.06,68.28,.05,15.48,.01,270.00
2016.11.17-19:00,.92,89.00,1.04,76.59,1.01,74.32,1.05,77.05,1.01,73.96,.90,77.61,.70,75.11,.56,69.59,.35,82.56,.18,52.50,.07,63.85,.07,23.90,.00,270.00
2016.11.17-20:00,.90,92.54,1.02,79.75,1.01,76.34,1.06,77.91,1.03,73.94,.91,77.40,.72,73.00,.55,70.37,.33,81.71,.21,55.29,.10,60.33,.10,36.06,.00,90.00
2016.11.17-21:00,.86,93.64,.98,81.19,.99,76.92,1.06,78.66,1.05,74.04,.93,77.15,.76,70.96,.58,70.00,.33,77.89,.24,58.61,.14,59.14,.14,44.42,.01,90.00
2016.11.17-22:00,.84,92.19,.96,81.20,.99,76.43,1.06,79.31,1.07,74.13,.96,76.68,.81,68.97,.62,68.70,.36,71.92,.27,61.34,.19,59.23,.20,49.61,.03,90.00
2016.11.17-23:00,.84,90.03,.95,81.61,1.01,76.45,1.06,80.22,1.10,74.59,.97,76.01,.87,67.18,.67,67.01,.39,64.89,.29,62.71,.22,60.05,.24,53.42,.04,90.00
2016.11.17-24:00,.88,89.15,.97,82.85,1.04,77.37,1.06,81.14,1.11,75.42,.99,75.21,.92,66.09,.73,66.19,.44,58.96,.29,62.33,.25,60.82,.27,56.28,.04,90.00
2016.11.18-01:00,.90,88.51,.98,83.64,1.07,78.12,1.03,81.21,1.11,75.98,.98,74.32,.97,65.92,.78,67.19,.49,56.02,.29,60.34,.25,61.10,.28,58.38,.04,90.00
2016.11.18-02:00,.90,86.70,.97,82.86,1.08,77.88,.98,79.42,1.07,75.47,.97,73.01,.99,66.28,.81,69.85,.54,55.77,.27,57.54,.23,61.19,.27,60.35,.04,90.00
2016.11.18-03:00,.91,84.39,.97,81.35,1.10,77.55,.96,76.62,1.05,74.63,.96,71.89,1.00,67.81,.81,74.26,.56,57.77,.26,54.04,.19,59.64,.23,61.10,.03,90.00
2016.11.18-04:00,.92,82.52,.97,80.00,1.12,77.78,.96,74.15,1.04,74.21,.96,71.81,1.00,70.86,.78,80.44,.57,61.64,.24,50.28,.15,54.53,.17,59.07,.01,90.00
2016.11.18-05:00,.90,80.63,.95,78.40,1.11,78.10,.97,71.81,1.02,73.64,.96,72.15,.99,74.33,.72,87.28,.55,66.39,.22,47.77,.12,46.65,.13,54.48,.00,270.00
2016.11.18-06:00,.87,79.68,.93,77.65,1.10,79.17,.99,70.40,1.02,73.26,.96,72.68,.96,77.52,.63,93.35,.52,70.82,.21,47.11,.11,39.85,.10,49.57,.01,270.00
2016.11.18-07:00,.84,80.09,.91,78.15,1.08,81.13,1.02,70.24,1.02,73.20,.95,73.04,.92,79.66,.51,96.95,.47,74.04,.21,48.53,.11,39.90,.09,50.40,.01,270.00
2016.11.18-08:00,.80,80.89,.88,78.93,1.05,83.31,1.04,70.97,1.03,73.44,.95,73.04,.88,80.65,.40,96.09,.42,76.62,.22,51.92,.12,45.20,.10,56.20,.00,270.00
2016.11.18-09:00,.74,80.17,.83,78.22,.99,84.47,1.05,72.00,1.04,73.79,.94,72.54,.85,80.59,.34,88.56,.40,79.19,.24,56.40,.15,50.43,.11,60.28,.01,90.00
2016.11.18-10:00,.68,78.00,.79,76.17,.94,84.43,1.06,73.34,1.06,74.46,.96,71.74,.86,79.65,.35,76.61,.40,80.83,.25,60.63,.17,53.85,.13,61.05,.01,90.00
2016.11.18-11:00,.61,75.82,.77,74.20,.90,83.94,1.07,74.90,1.08,75.42,.99,70.82,.87,78.07,.41,66.60,.41,80.50,.26,64.34,.19,56.78,.14,60.66,.02,90.00
2016.11.18-12:00,.59,74.88,.80,73.82,.89,83.71,1.08,76.72,1.10,76.63,1.03,70.65,.89,76.60,.49,60.26,.42,78.01,.25,67.12,.20,59.47,.16,59.97,.02,90.00
2016.11.18-13:00,.60,74.61,.87,74.34,.92,83.37,1.08,78.42,1.10,77.92,1.05,71.65,.90,76.13,.56,57.14,.42,74.18,.24,68.78,.20,62.02,.16,59.00,.02,90.00
2016.11.18-14:00,.63,73.11,.92,74.15,.94,82.07,1.06,79.31,1.07,79.14,1.05,73.37,.87,76.82,.61,56.90,.42,70.87,.21,69.38,.18,64.65,.15,57.35,.02,90.00
2016.11.18-15:00,.66,69.59,.94,72.59,.93,79.25,1.02,78.66,1.01,79.50,1.01,74.82,.83,77.85,.63,58.50,.43,69.22,.19,69.15,.15,68.33,.13,55.91,.02,90.00
2016.11.18-16:00,.75,68.32,.97,71.65,.94,76.52,1.01,77.72,.98,79.04,.99,76.50,.79,79.10,.64,61.85,.43,69.75,.16,66.71,.12,72.24,.10,52.76,.01,90.00
2016.11.18-17:00,.83,69.59,1.01,72.33,.96,75.09,1.02,77.35,.98,78.28,.97,78.41,.76,80.22,.63,66.62,.42,72.38,.13,61.38,.08,75.15,.07,44.67,.00,90.00
2016.11.18-18:00,.87,71.04,1.03,73.45,.98,74.34,1.04,76.96,.99,77.22,.97,79.51,.74,80.16,.61,71.54,.40,76.45,.13,56.31,.06,75.51,.05,31.92,.01,270.00
2016.11.18-19:00,.89,73.17,1.02,75.06,.99,74.42,1.06,76.99,1.00,76.50,.97,80.02,.73,78.84,.59,75.52,.38,80.65,.13,54.61,.05,67.93,.05,23.76,.01,270.00
2016.11.18-20:00,.89,76.20,.99,77.38,.98,75.42,1.07,77.94,1.02,76.61,.98,80.59,.74,76.70,.57,77.41,.36,83.04,.15,55.83,.06,58.25,.07,29.58,.01,270.00
2016.11.18-21:00,.87,78.44,.95,79.23,.96,76.04,1.07,79.30,1.03,77.15,.99,81.16,.76,74.24,.56,77.09,.35,82.92,.18,57.93,.09,54.99,.11,40.33,.00,90.00
2016.11.18-22:00,.85,78.24,.92,79.16,.95,75.03,1.07,80.35,1.04,77.40,1.00,81.35,.80,71.87,.57,75.33,.36,80.83,.22,59.75,.13,55.08,.15,48.67,.01,90.00
2016.11.18-23:00,.85,77.20,.92,78.41,.96,73.66,1.06,81.25,1.05,77.34,1.00,80.94,.84,69.49,.60,72.60,.37,76.68,.24,60.75,.17,56.56,.20,54.91,.02,90.00
2016.11.18-24:00,.88,77.78,.94,79.06,1.00,73.83,1.06,82.28,1.06,77.37,.99,79.81,.89,67.23,.64,69.67,.39,70.61,.26,60.51,.21,58.51,.24,59.90,.03,90.00
2016.11.19-01:00,.91,79.37,.97,80.71,1.04,75.01,1.04,83.09,1.05,77.49,.97,78.30,.94,65.97,.69,68.40,.43,65.28,.27,59.23,.22,59.83,.26,63.43,.04,90.00
2016.11.19-02:00,.92,79.79,.97,81.33,1.05,75.41,1.00,82.52,1.02,76.89,.95,76.56,.97,65.92,.74,69.60,.47,62.67,.27,57.91,.22,60.35,.26,65.72,.04,90.00
2016.11.19-03:00,.91,78.38,.95,80.11,1.05,74.50,.94,79.79,.99,75.12,.93,74.55,1.00,66.74,.76,72.72,.50,62.48,.26,57.41,.21,60.40,.23,67.36,.03,90.00
2016.11.19-04:00,.92,76.62,.95,78.36,1.06,73.59,.92,76.42,.99,73.51,.93,73.36,1.02,69.28,.76,77.69,.52,64.44,.25,57.18,.17,58.54,.19,67.18,.02,90.00
2016.11.19-05:00,.91,73.87,.93,76.37,1.05,72.80,.92,73.33,.99,72.41,.95,73.32,1.02,73.02,.72,83.79,.52,67.75,.23,57.34,.14,54.60,.13,64.36,.00,90.00
2016.11.19-06:00,.89,71.10,.91,74.83,1.05,72.63,.95,71.06,1.01,71.88,.96,74.06,1.02,77.14,.66,89.85,.50,71.75,.22,58.25,.11,49.41,.09,57.76,.01,270.00
2016.11.19-07:00,.89,70.20,.91,75.07,1.06,74.22,.98,70.18,1.03,72.06,.97,75.14,.99,80.69,.57,94.27,.46,75.41,.20,59.89,.10,46.38,.07,49.76,.01,270.00
2016.11.19-08:00,.89,70.82,.90,76.97,1.06,77.40,1.01,70.60,1.04,72.91,.96,76.12,.94,82.99,.46,95.25,.41,77.88,.20,62.15,.11,49.11,.07,49.87,.01,270.00
2016.11.19-09:00,.86,69.63,.87,78.44,1.02,80.41,1.02,71.47,1.04,73.99,.93,76.57,.89,83.97,.37,91.41,.38,80.19,.21,65.38,.12,54.32,.08,54.92,.00,270.00
2016.11.19-10:00,.92,66.77,.83,78.33,.96,81.93,1.02,72.34,1.04,74.94,.91,76.10,.86,83.63,.34,83.03,.37,82.88,.22,69.19,.14,57.54,.09,56.14,.01,90.00
2016.11.19-11:00,.97,65.78,.81,77.94,.91,82.45,1.03,73.43,1.05,75.79,.92,74.72,.85,82.07,.38,73.88,.38,84.27,.23,73.05,.15,59.57,.11,55.30,.01,90.00
2016.11.19-12:00,1.03,66.94,.80,78.71,.86,82.92,1.04,74.83,1.07,76.64,.94,72.91,.86,79.65,.44,66.23,.39,82.73,.22,76.55,.16,61.79,.13,55.49,.02,90.00
2016.11.19-13:00,1.11,70.10,.82,80.28,.85,83.27,1.06,76.62,1.09,77.74,.97,72.01,.87,77.73,.51,61.44,.39,79.19,.21,79.82,.16,63.88,.14,55.91,.02,90.00
2016.11.19-14:00,1.18,73.23,.85,80.80,.85,82.28,1.07,78.04,1.08,78.94,1.00,72.30,.87,77.22,.57,59.89,.39,75.30,.18,82.35,.16,65.57,.15,55.81,.02,90.00
2016.11.19-15:00,1.18,74.97,.85,79.26,.83,79.06,1.04,78.21,1.05,79.71,.99,72.97,.85,77.75,.61,60.85,.39,72.57,.16,83.91,.15,67.66,.14,55.72,.02,90.00
2016.11.19-16:00,1.16,75.58,.84,76.72,.81,74.74,1.03,77.70,1.01,79.89,.98,74.00,.82,78.78,.63,63.53,.40,71.39,.13,83.10,.12,70.11,.13,55.53,.02,90.00
2016.11.19-17:00,1.15,75.55,.85,75.04,.83,71.66,1.03,77.88,1.00,80.14,.98,75.96,.80,80.27,.64,67.57,.41,71.89,.11,77.62,.09,71.44,.10,54.07,.01,90.00
2016.11.19-18:00,1.16,74.61,.88,73.85,.86,69.39,1.04,78.15,.99,80.09,.98,77.81,.77,81.25,.62,72.22,.40,74.11,.10,68.46,.06,71.11,.07,52.47,.00,90.00
2016.11.19-19:00,1.18,73.27,.90,73.49,.90,67.97,1.05,78.26,.99,79.66,.98,79.00,.75,81.02,.59,76.80,.38,77.92,.10,60.17,.05,66.18,.06,50.98,.00,270.00
2016.11.19-20:00,1.20,72.76,.92,74.95,.93,68.22,1.05,78.80,.99,79.40,.99,79.79,.74,79.52,.56,80.01,.36,81.92,.11,55.85,.06,58.77,.06,51.64,.01,270.00
2016.11.19-21:00,1.21,73.39,.91,77.80,.94,69.80,1.04,80.04,.99,79.67,.99,80.64,.74,77.29,.54,80.80,.35,84.40,.14,54.88,.08,54.83,.08,54.37,.00,270.00
2016.11.19-22:00,1.23,73.68,.90,79.71,.94,70.93,1.03,81.23,.99,79.97,1.00,81.42,.77,74.97,.54,79.71,.36,85.36,.17,56.10,.10,54.22,.11,56.95,.00,270.00
2016.11.19-23:00,1.27,74.00,.91,79.94,.96,71.28,1.03,81.93,.99,79.87,1.00,81.69,.80,72.57,.56,77.48,.37,84.83,.20,58.16,.14,55.72,.14,59.58,.01,90.00
2016.11.19-24:00,1.29,76.62,.95,80.63,1.01,72.42,1.02,82.43,1.00,79.56,.99,81.01,.83,69.79,.58,74.15,.38,81.36,.23,59.61,.17,58.75,.17,63.22,.02,90.00
2016.11.20-01:00,1.31,80.48,.99,82.59,1.05,74.44,1.01,82.77,1.00,79.15,.97,79.49,.87,67.41,.61,71.13,.39,75.51,.25,60.16,.20,61.94,.20,66.92,.02,90.00
2016.11.20-02:00,1.32,84.01,1.00,84.42,1.06,75.83,.98,82.14,.98,78.20,.96,77.56,.91,66.30,.65,70.30,.41,70.52,.26,60.84,.21,64.12,.22,69.32,.03,90.00
2016.11.20-03:00,1.28,86.46,.97,84.82,1.04,75.77,.92,79.59,.96,76.27,.94,75.51,.95,66.38,.69,71.94,.45,68.33,.26,62.78,.20,65.23,.21,70.15,.03,90.00
2016.11.20-04:00,1.21,87.53,.94,83.59,1.03,74.93,.90,75.55,.96,73.88,.96,73.85,.99,67.79,.72,75.30,.47,68.35,.26,65.76,.18,65.18,.18,69.33,.02,90.00
2016.11.20-05:00,1.13,87.13,.91,81.48,1.03,73.97,.92,71.78,.98,72.07,.98,73.40,1.02,70.57,.70,79.81,.48,69.52,.25,69.16,.15,63.91,.14,66.68,.01,90.00
2016.11.20-06:00,1.05,85.72,.89,79.53,1.04,73.46,.96,69.63,1.01,71.40,1.02,74.37,1.03,74.39,.66,84.88,.47,71.41,.23,72.56,.12,60.91,.10,61.20,.00,90.00
2016.11.20-07:00,.98,84.44,.88,78.30,1.05,73.77,1.01,69.04,1.04,71.57,1.03,76.10,1.02,78.30,.59,89.40,.44,73.85,.21,76.12,.10,56.55,.08,52.75,.00,270.00
2016.11.20-08:00,.92,84.00,.85,78.01,1.05,75.21,1.05,69.73,1.06,72.34,1.03,78.04,.99,81.60,.50,91.83,.40,76.47,.19,79.63,.09,53.25,.07,46.49,.00,270.00
2016.11.20-09:00,.88,85.60,.81,77.40,1.02,76.76,1.05,70.90,1.06,73.26,1.00,79.58,.94,83.78,.41,90.30,.37,78.91,.19,82.89,.10,53.91,.08,48.40,.00,90.00
2016.11.20-10:00,.85,87.97,.78,75.32,.98,77.58,1.05,72.20,1.04,74.27,.95,80.46,.89,84.95,.36,84.38,.36,81.94,.19,85.85,.11,55.41,.09,51.06,.01,90.00
2016.11.20-11:00,.82,89.97,.79,73.07,.98,77.99,1.06,73.70,1.05,75.37,.93,80.44,.86,84.96,.37,76.65,.36,85.30,.19,88.48,.12,55.30,.10,49.83,.01,90.00
2016.11.20-12:00,.77,92.21,.81,71.68,.96,78.37,1.06,74.97,1.06,76.18,.91,79.04,.84,83.26,.41,69.04,.38,86.56,.18,90.87,.13,56.73,.11,50.52,.02,90.00
2016.11.20-13:00,.70,94.87,.82,71.53,.95,79.18,1.07,76.40,1.07,77.07,.92,77.20,.83,80.55,.47,62.82,.38,84.59,.17,93.13,.14,60.09,.13,54.11,.02,90.00
2016.11.20-14:00,.64,94.51,.85,71.35,.96,79.63,1.09,77.84,1.09,78.30,.94,76.08,.84,78.48,.55,59.79,.38,80.88,.16,95.10,.15,63.71,.14,57.74,.03,90.00
2016.11.20-15:00,.59,87.02,.89,69.58,.95,78.61,1.08,78.50,1.08,79.44,.94,75.56,.84,77.71,.60,59.92,.38,77.55,.13,95.74,.15,67.23,.15,60.55,.03,90.00